Regional Weather Roundup
Issued by NWS

Home | Current Version | Previous Version | Text Only | Print | Product List | Glossary On
Versions: 1 2 3 4 5 6 7 8 9 10 11 12 13 14 15 16 17 18 19 20 21 22 23 24 25 26 27 28 29 30 31 32 33 34 35 36 37 38 39 40 41 42 43 44 45 46 47 48 49 50
000
ASUS43 KMPX 060101
RWRMN
WEATHER ROUNDUP FOR MINNESOTA
NATIONAL WEATHER SERVICE TWIN CITIES/CHANHASSEN MN
700 PM CST MON DEC 05 2016


NOTE: "FAIR" INDICATES FEW OR NO CLOUDS BELOW 12,000 FEET WITH NO
SIGNIFICANT WEATHER AND/OR OBSTRUCTIONS TO VISIBILITY. N/A MEANS
CURRENT SKY AND/OR WEATHER CONDITIONS ARE NOT AVAILABLE.

MNZ060>063-068>070-060200-
   Twin Cities Metro

CITY           SKY/WX    TMP DP  RH WIND       PRES   REMARKS
TWIN CITIES    CLOUDY    38  31  76 SE18      29.66S
ST PAUL        CLOUDY    37  33  85 SE15G23   29.69R
CRYSTAL        CLOUDY    38  30  73 SE17G23   29.63F
BLAINE         CLOUDY    39  36  87 SE15G23   29.65S
LAKEVILLE      CLOUDY    36  32  87 SE14      29.67R
EDEN PRAIRIE   CLOUDY    38  32  79 SE12      29.64R
SOUTH ST PAUL  CLOUDY    37  32  81 SE9G16    29.69R
LAKE ELMO      CLOUDY    36  32  87 S13       29.70R
$$
MNZ001>005-007-008-013>017-022>024-027-028-060200-
   Northwest Minnesota

CITY           SKY/WX    TMP DP  RH WIND       PRES   REMARKS
BEMIDJI        SNOW      30  30  99 E13       29.54F VSB 1/4 WCI  20
HALLOCK        CLOUDY    30  28  93 NE13      29.62F WCI  20
ROSEAU         CLOUDY    30  27  86 E18       29.64F WCI  18
WARROAD        CLOUDY    30  27  86 E17G25    29.66F WCI  18
THIEF RVR FALL CLOUDY    29  27  92 NE16      29.57F WCI  17
CROOKSTON      LGT SNOW  30  28  93 E14       29.55F WCI  20
FOSSTON        SNOW      28  27  93 E10       29.52F VSB 1/2 WCI  19
DETROIT LAKES  CLOUDY    34  32  93 SE12      29.47F WCI  25
MOORHEAD       CLOUDY    34  30  86 E6        29.48F WCI  29
PARK RAPIDS    CLOUDY    33  29  85 E15G21    29.50F WCI  23
$$
MNZ006-009>011-018-025>026-060200-
   North Central Minnesota

CITY           SKY/WX    TMP DP  RH WIND       PRES   REMARKS
BAUDETTE       CLOUDY    30  25  81 E15       29.65F WCI  19
FLAG ISLAND    CLOUDY    30  27  86 E7        29.69S WCI  23
INTL FALLS     CLOUDY    30  25  81 E12       29.69F WCI  20
WASKISH        LGT SNOW  30  27  86 E14G20    29.62F WCI  20
BIG FORK       LGT SNOW  30  28  93 E7        29.63F VSB 3/4 WCI  23
LONGVILLE      FLURRIES  32  32 100 E5        29.55F WCI  27
GRAND RAPIDS   FLURRIES  32  31  96 E10       29.62F WCI  24
CRANE LAKE     CLOUDY    28  27  93 CALM      29.75F
ORR            LGT SNOW  28  25  86 CALM      29.65F
COOK           LGT SNOW  28  28 100 E6        29.67F VSB 3/4 WCI  22
$$
MNZ012-019>021-037-060200-
   Northeast Minnesota

CITY           SKY/WX    TMP DP  RH WIND       PRES   REMARKS
DULUTH         FOG       33  33 100 E17       29.69S VSB 1/4 WCI  22
ELY            LGT SNOW  28  27  93 E6        29.73F WCI  22
HIBBING        LGT SNOW  31  30  96 SE14      29.64F VSB 3/4 WCI  21
EVELETH        LGT SNOW  32  31  96 E9        29.66F WCI  24
DULUTH HARBOR  CLOUDY    36  34  93 E8        29.74S
TWO HARBORS    CLOUDY    36  30  80 E12       29.71F FOG
SILVER BAY     LGT SNOW  34  34 100 E7        29.77R WCI  28
GRAND MARAIS     N/A     34  29  82 NE6       29.84F WCI  29
G MARAIS ARPRT CLOUDY    25  21  86 NE5       29.80S WCI  19
$$
MNZ029>031-032-039>041-046>048-054>057-064-060200-
   West Central Minnesota

CITY           SKY/WX    TMP DP  RH WIND       PRES   REMARKS
FERGUS FALLS   CLOUDY    36  32  87 SE9       29.49F
WHEATON        CLOUDY    36  34  93 S7        29.48F
MORRIS         MOCLDY    36  34  93 S15       29.46S
ALEXANDRIA     CLOUDY    35  33  92 SE10      29.49S WCI  27
ELBOW LAKE     CLOUDY    34  33  94 E10       29.46S WCI  26
WADENA         CLOUDY    32  30  93 E10       29.49S WCI  24
GLENWOOD       CLOUDY    37  34  87 S14       29.49S
APPLETON       PTCLDY    36  30  80 SW15G24   29.49R
BENSON         MOCLDY    37  34  87 SW13      29.50R
ORTONVILLE     CLOUDY    36  30  80 W13G18    29.50R
MADISON        MOCLDY    37  32  81 W14       29.54R
WILLMAR        MOCLDY    41  36  81 S7        29.53S
$$
MNZ033>034-036-042>043-049>051-058-059-060200-
   Central Minnesota

CITY           SKY/WX    TMP DP  RH WIND       PRES   REMARKS
ST CLOUD       CLOUDY    39  34  82 S20G25    29.55F
PAYNESVILLE    CLOUDY    38  38 100 S15       29.53S
AITKIN         CLOUDY    36  30  80 SE12      29.58F
PINE RIVER     FLURRIES  34  34 100 E12G17    29.57F WCI  25
BRAINERD       CLOUDY    34  32  92 SE12G21   29.55F WCI  25
STAPLES        CLOUDY    32  32 100 E6        29.50F WCI  26
LONG PRAIRIE   CLOUDY    34  32  93 E10       29.50F WCI  26
LITTLE FALLS   CLOUDY    34  32  93 SE9G17    29.53F WCI  26
LITCHFIELD     CLEAR     39  36  87 S8        29.56S
BUFFALO        CLOUDY    38  32  78 SE18G24   29.60F
MAPLE LAKE     CLOUDY    38  34  85 SE12G21   29.58F
$$
MNZ037-044-045-052-053-060200-
   East Central Minnesota

CITY           SKY/WX    TMP DP  RH WIND       PRES   REMARKS
PRINCETON      CLOUDY    39  34  81 SE15G21   29.59F
MORA           LGT RAIN  34  32  93 SE10      29.64F WCI  26
CAMBRIDGE      CLOUDY    37  32  81 SE8G18    29.61F
RUSH CITY      CLOUDY    36  32  87 SE12      29.66S
MOOSE LAKE     CLOUDY    34  32  93 SE5       29.64F WCI  30
HINCKLEY       MOCLDY    34  34 100 SE6       29.66S WCI  29
CLOQUET        CLOUDY    34  30  86 E7        29.68S FOG     WCI  28
MCGREGOR       CLOUDY    34  32  93 SE15      29.61F WCI  24
$$
MNZ071>073-080-081-089-090-097-098-060200-
   Southwest Minnesota

CITY           SKY/WX    TMP DP  RH WIND       PRES   REMARKS
MONTEVIDEO     MOCLDY    37  34  87 W16G25    29.55R
GRANITE FALLS  CLOUDY    40  34  79 SW20G31   29.58R
CANBY          MOCLDY    36  31  81 W14G21    29.57R
MARSHALL       MOCLDY    35  29  78 W17G30    29.58R WCI  25
REDWOOD FALLS  CLOUDY    42  34  73 SW18G26   29.56R
OLIVIA         PTCLDY    41  34  75 S17       29.54F
PIPESTONE      CLOUDY    34  28  80 W24G30    29.61R WCI  21
WINDOM         PTCLDY    39  36  87 S15G22    29.59S
WORTHINGTON    MOCLDY    37  32  82 SW25G32   29.62R
JACKSON        PTCLDY    39  34  81 SW16      29.62R
TRACY          CLOUDY    38  33  80 W14G28    29.60R
SLAYTON        PTCLDY    36  32  86 SW23      29.59R
$$
MNZ065>067-074>077-082>085-091>093-060200-
   South Central Minnesota

CITY           SKY/WX    TMP DP  RH WIND       PRES   REMARKS
MANKATO        CLOUDY    40  35  83 S20G25    29.63
NEW ULM        PTCLDY    41  36  81 S12G18    29.60R
ST JAMES       MOCLDY    41  36  81 S14       29.63R
FAIRMONT       CLOUDY    41  37  86 S15       29.64R
GLENCOE        MOCLDY    39  37  91 SE10G16   29.60S
FARIBAULT      CLOUDY    37  34  87 S14G20    29.67S
OWATONNA       CLOUDY    37  30  75 S21G33    29.67R
WASECA         CLOUDY    37  32  81 S22       29.67S
ALBERT LEA     CLOUDY    39  37  93 S15G21    29.69R
$$
MNZ078>079-086>088-094>096-060200-
   Southeast Minnesota

CITY           SKY/WX    TMP DP  RH WIND       PRES   REMARKS
ROCHESTER      MOCLDY    34  31  88 S24G30    29.71R WCI  21
RED WING       CLOUDY    37  30  75 SE17      29.70S
STANTON        CLOUDY    38  32  79 S10G18    29.67R
DODGE CENTER   CLOUDY    36  30  80 S20G29    29.68R
WINONA         CLOUDY    36  32  87 SE7       29.77R
AUSTIN         CLOUDY    34  30  86 S12G20    29.70R WCI  25
PRESTON        CLOUDY    33  29  88 S13G20    29.75R WCI  23
$$
ABBREVIATIONS USED IN REMARKS
   TC - TEMPERATURES IN CELSIUS
  WCI - WIND CHILL INDEX
   HX - HEAT INDEX
  VSB - VISIBILITY
$$



USA.gov is the U.S. government's official web portal to all federal, state and local government web resources and services.